Weather History for KDTO - December, 2012

Change the Weather History Date:

Sunday, December 30, 2012

  Actual Average Record
Temperature  
Mean Temperature 34 °F -  
Max Temperature 45 °F 53 °F 75 °F (2008)
Min Temperature 23 °F 31 °F 23 °F (2000)
Degree Days  
Heating Degree Days 31    
Moisture  
Dew Point 24 °F    
Average Humidity 67    
Maximum Humidity 91    
Minimum Humidity 39    
Precipitation  
Precipitation 0.04 in - - ()
Sea Level Pressure  
Sea Level Pressure 30.35 in    
Wind  
Wind Speed 5 mph (SE)    
Max Wind Speed 15 mph    
Max Gust Speed -    
Visibility 10 miles    
Events Rain    
Averages and records for this station are not official NWS values.
T = Trace of Precipitation, MM = Missing Value Source: NWS Daily Summary

Daily Weather History Graph

Daily Weather History Graph

Search for Another Location

Airport or City:

Trip Planner

Search our weather history database for the weather conditions in past years. The results will help you decide how hot, cold, wet, or windy it might be!

Date:

Astronomy

Dec. 30, 2012 Rise Set
Actual Time 7:31 AM CST 5:31 PM CST
Civil Twilight 7:04 AM CST 5:58 PM CST
Nautical Twilight 6:33 AM CST 6:29 PM CST
Astronomical Twilight 6:03 AM CST 6:59 PM CST
Moon 7:55 PM CST (12/30) 8:48 AM CST (12/30)
Length of Visible Light 10h 54m
Length of Day
9h 59m
Waning Gibbous, 95% of the Moon is Illuminated
Dec 30
Waning Gibbous
Jan 4
Last Quarter
Jan 11
New
Jan 18
First Quarter
Jan 26
Full

Hourly Weather History & Observations

Time (CST) Temp. Windchill Dew Point Humidity Pressure Visibility Wind Dir Wind Speed Gust Speed Precip Events Conditions
12:53 AM 28.0 °F - 21.9 °F 78% 30.44 in 10.0 mi Calm Calm - N/A   Clear
1:53 AM 25.0 °F - 21.9 °F 88% 30.44 in 10.0 mi Calm Calm - N/A   Clear
2:53 AM 24.1 °F 19.7 °F 21.9 °F 91% 30.43 in 10.0 mi East 3.5 mph - N/A   Clear
3:53 AM 27.0 °F - 21.9 °F 81% 30.43 in 10.0 mi Calm Calm - N/A   Clear
4:53 AM 23.0 °F - 19.9 °F 88% 30.42 in 10.0 mi Calm Calm - N/A   Clear
5:53 AM 24.1 °F 18.2 °F 19.9 °F 84% 30.41 in 10.0 mi SE 4.6 mph - N/A   Clear
6:53 AM 25.0 °F - 21.0 °F 85% 30.43 in 10.0 mi Calm Calm - N/A   Clear
7:53 AM 27.0 °F 23.0 °F 23.0 °F 85% 30.43 in 9.0 mi SE 3.5 mph - N/A   Clear
8:53 AM 28.0 °F - 25.0 °F 88% 30.46 in 8.0 mi Calm Calm - N/A   Clear
9:53 AM 35.1 °F 29.3 °F 27.0 °F 72% 30.45 in 10.0 mi SSE 6.9 mph - N/A   Clear
10:53 AM 39.9 °F 33.4 °F 27.0 °F 60% 30.44 in 10.0 mi South 10.4 mph - N/A   Clear
11:53 AM 42.1 °F 34.9 °F 24.1 °F 49% 30.41 in 10.0 mi South 13.8 mph - N/A   Clear
12:53 PM 44.1 °F 37.1 °F 23.0 °F 43% 30.37 in 10.0 mi SSE 15.0 mph - N/A   Clear
1:53 PM 44.1 °F 37.1 °F 21.9 °F 42% 30.33 in 10.0 mi SSE 15.0 mph - N/A   Clear
2:53 PM 45.0 °F 38.2 °F 23.0 °F 42% 30.32 in 10.0 mi SSE 15.0 mph - N/A   Clear
3:53 PM 45.0 °F 38.2 °F 21.0 °F 39% 30.28 in 10.0 mi SE 15.0 mph - N/A   Clear
4:53 PM 45.0 °F 38.5 °F 23.0 °F 42% 30.27 in 10.0 mi SSE 13.8 mph - N/A   Clear
5:53 PM 43.0 °F 37.7 °F 26.1 °F 51% 30.26 in 10.0 mi SSE 9.2 mph - 0.00 in Rain Light Rain
6:53 PM 41.0 °F 34.7 °F 27.0 °F 57% 30.26 in 10.0 mi SSE 10.4 mph - 0.00 in Rain Light Rain
7:53 PM 41.0 °F 34.3 °F 26.1 °F 55% 30.25 in 10.0 mi SE 11.5 mph - 0.00 in Rain Light Rain
8:53 PM 39.9 °F 33.4 °F 28.0 °F 63% 30.26 in 10.0 mi SSE 10.4 mph - 0.00 in Rain Light Rain
9:53 PM 39.0 °F 35.7 °F 30.9 °F 73% 30.25 in 10.0 mi SE 4.6 mph - 0.03 in Rain Light Rain
10:53 PM 39.0 °F 34.8 °F 32.0 °F 76% 30.24 in 10.0 mi SE 5.8 mph - 0.01 in Rain Light Rain
11:53 PM 39.9 °F 35.8 °F 30.9 °F 70% 30.22 in 10.0 mi SSE 5.8 mph - 0.00 in   Overcast